Location: Cardiff
(53.7833°N, 113.6000°W)
Time: 19:03:14
(UTC+00:00)

NOAA 15 - Pass Details

Date: 07 December 2023
Orbit: 796 x 810 km, 98.6° (Epoch: 21 February)

Event Time Altitude Azimuth Distance (km) Brightness Sun altitude
Rises 13:55:50 0° 26° (NNE) 3,325 7.9 -13.8°
Reaches altitude 10° 13:59:09 10° 48° (NE) 2,386 7.4 -13.4°
Maximum altitude 14:02:19 16° 86° (E) 1,995 7.6 -12.9°
Drops below altitude 10° 14:05:27 10° 123° (ESE) 2,371 8.5 -12.5°
Sets 14:08:44 0° 145° (SE) 3,294 8.8 -12.0°
